This demonstration page uses our WeatherBlox Daily Observations layout. Learn more.

Left ArrowRight Arrow

39.08367, -84.50855

Hourly Observations for March 2, 2018

Temp ( °F °C ) Dew Point ( °F °C ) Humidity (%) Winds ( mph kmh ) Pressure ( in mb ) Visibility ( mi km ) Precip ( " mm )
12:53 am 00:53 Mostly Cloudy 40 4.4 33 0.6 77 77 NW 10 17 30.16 1021 10 16.0934 0 0
1:53 am 01:53 Cloudy 39 3.9 33 0.6 79 79 NW 14 22 30.19 1022 10 16.0934 0 0
2:31 am 02:31 Mostly Clear 37 2.8 31 -0.6 79 79 NW 12 19 30.21 1023 10 16.0934 0 0
2:53 am 02:53 Clear 36 2.2 30 -1.1 79 79 WNW 9 15 30.21 1023 10 16.0934 0 0
3:53 am 03:53 Clear 35 1.7 27 -2.8 72 72 NW 7 11 30.23 1024 10 16.0934 0 0
4:53 am 04:53 Clear 34 1.1 28 -2.2 79 79 WNW 9 15 30.24 1024 10 16.0934 0 0
5:53 am 05:53 Clear 34 1.1 28 -2.2 79 79 NW 6 9 30.27 1025 10 16.0934 0 0
6:53 am 06:53 Clear 34 1.1 28 -2.2 79 79 NNW 8 13 30.3 1026 10 16.0934 0 0
7:53 am 07:53 Sunny 34 1.1 29 -1.7 82 82 VRB 6 9 30.33 1027 10 16.0934 0 0
8:53 am 08:53 Mostly Sunny 37 2.8 29 -1.7 73 73 NNW 13 20 30.35 1028 10 16.0934 0 0
9:53 am 09:53 Mostly Sunny 40 4.4 31 -0.6 70 70 NNW 13 20 30.36 1028 10 16.0934 0 0
10:53 am 10:53 Sunny 43 6.1 30 -1.1 60 60 NNW 10 17 30.37 1029 10 16.0934 0 0
11:53 am 11:53 Mostly Sunny 46 7.8 30 -1.1 54 54 NW 12 19 30.38 1029 10 16.0934 0 0
12:53 pm 12:53 Sunny 47 8.3 25 -3.9 42 42 N 18 30 30.38 1029 10 16.0934 0 0
1:53 pm 13:53 Mostly Sunny 48 8.9 25 -3.9 41 41 NNW 14 22 30.39 1029 10 16.0934 0 0
2:53 pm 14:53 Mostly Sunny 48 8.9 24 -4.4 39 39 N 16 26 30.39 1029 10 16.0934 0 0
3:53 pm 15:53 Mostly Sunny 49 9.4 25 -3.9 39 39 NNW 15 24 30.39 1029 10 16.0934 0 0
4:53 pm 16:53 Mostly Sunny 47 8.3 24 -4.4 41 41 NNE 14 22 30.39 1029 10 16.0934 0 0
5:53 pm 17:53 Sunny 46 7.8 25 -3.9 44 44 N 14 22 30.4 1029 10 16.0934 0 0
6:53 pm 18:53 Clear 44 6.7 24 -4.4 45 45 N 9 15 30.42 1030 10 16.0934 0 0
7:53 pm 19:53 Clear 41 5 26 -3.3 55 55 NNE 6 9 30.42 1030 10 16.0934 0 0
8:53 pm 20:53 Clear 39 3.9 28 -2.2 65 65 Calm 30.42 1030 10 16.0934 0 0
9:53 pm 21:53 Clear 38 3.3 26 -3.3 62 62 N 3 6 30.43 1030 10 16.0934 0 0
10:53 pm 22:53 Clear 36 2.2 31 -0.6 82 82 Calm 30.44 1031 10 16.0934 0 0
11:53 pm 23:53 Clear 34 1.1 30 -1.1 85 85 Calm 30.46 1031 10 16.0934 0 0

Powered by AerisWeather